{"data":{"norad_id":61063,"epoch":"2026-05-25T03:12:46.698048Z","epoch_age_seconds":66701,"freshness":"FRESH","line1":"1 61063U 24164P   26145.13387382  .00001912  00000+0  73381-4 0  9994","line2":"2 61063  53.1614  95.8936 0001141  83.8631 276.2500 15.31696929 95180","mean_motion":15.31696929,"eccentricity":0.0001141,"inclination_deg":53.1614,"raan_deg":95.8936,"arg_perigee_deg":83.8631,"mean_anomaly_deg":276.25,"bstar":7.3381e-5,"rev_number":9518,"period_min":94.013376454318,"perigee_km":469.96769182246,"apogee_km":471.53060764183,"semimajor_km":6848.8861497321,"source":"CELESTRAK","updated_at":"2026-05-25T13:38:19.356175Z"}}